CZ-4B DEB, 43431

Orbit data source: Space-Track

CZ-4B DEB, 43431 is space debris in LEO originally from a launch on Thu, 15 Jun 2017 UTC launched from the Jiuquan Satellite Launch Center, China (JSC). Debris objects in space refer to the collection of defunct objects orbiting the Earth. Examples of debris include non-operational satellites, rocket bodies, and fragments generated from explosions, collisions, or faulty payload assembly.

Loading next visibility...
Identifier
43431, 2017-034G
Orbit
LEO
Country
Flag of CNCN / PRC
Related business
Manufacturer
SAST
Mission
Spacecraft
Bus & Motor
Unknown
Mass
Unknown
Launch date (UTC)
2017-06-15 (8 years ago)
Launch vehicle
Unknown
Launch site
Jiuquan Satellite Launch Center, China (JSC)
Object type
Payload
Rocket body
Debris
Shape & HBR
Unknown
Radar Cross Section
Small (<0.1 m²)

Expand to show TLE details & history
Last TLE update: 2 days ago

TLE from 2 days ago
0 CZ-4B DEB
1 43431U 17034G   25242.06800562  .00013363  00000-0  10821-2 0  9992
2 43431  43.0829 136.7860 0126148 246.5389 112.2148 14.93553100436499
Epoch: 2025-08-30T01:37Z
TLE epoch observation values (Epoch: 2025-08-30T01:37:55.685Z)
Latitude
-0.00004°
Longitude
133.79632°
Altitude
620.812 km
Speed
7.532 km/s
True Right ascension
09h 07m 08s
True Declination
0° 00' 00"
Sunlit
Object was in daylight at epoch
Visualization orbit readout
Latitude
Unknown
Longitude
Unknown
Altitude
Unknown
Speed
Unknown
Apparent Right ascension
Unknown
Apparent Declination
Unknown
Sunlit
N/A
Visualization observer readout
Local Sidereal Time
07:44:58
Azimuth
Unknown
Elevation
Unknown
Doppler factor
Unknown
Orbital elements
Apogee altitude
676.657 km
Perigee altitude
500.884 km
Semi-major axis
6,966.907 km
Eccentricity
0.01261
Inclination
43.0829°
RAAN
136.786°
Arg. of periapsis
246.5389°
True anomaly
113.545°
Mean anomaly
112.2148°
Eccentric anomaly
112.8807°
Mean motion
3.73236 °/min
Orbital period
96.45 mins
BSTAR
0.0010821
Loading maneuver chart data...
Computing Atmospheric mass density...
Loading historical data...
Loading historical data...
Loading historical data...
Loading historical data...
Loading historical data...
Loading historical data...
Loading historical data...

Documentation

Showing up to 5 results
|